| time (UTC) | temp F | wind direction | speed MPH | gust MPH | rain 1hr in | rain 24hr in | rain mn in | humidity % | barometer mb |
| 20260505151614 | 52 | 74 | 2.0 | 6.0 | 0.01 | 0.44 | 0.13 | 87 | 1008.7 |
| 20260505150113 | 52 | 44 | 2.0 | 6.0 | 0.00 | 0.43 | 0.12 | 87 | 1008.9 |
| 20260505140117 | 52 | 32 | 3.0 | 9.0 | 0.00 | 0.43 | 0.12 | 87 | 1009.1 |
| 20260505124522 | 51 | 47 | 4.0 | 9.0 | 0.00 | 0.43 | 0.12 | 88 | 1009.6 |
| 20260505123009 | 51 | 47 | 4.0 | 7.0 | 0.00 | 0.43 | 0.12 | 88 | 1009.6 |
| 20260505121543 | 51 | 52 | 3.0 | 8.0 | 0.00 | 0.43 | 0.12 | 88 | 1009.7 |
| 20260505120140 | 51 | 40 | 3.0 | 9.0 | 0.00 | 0.43 | 0.12 | 88 | 1009.7 |
| 20260505114626 | 51 | 29 | 3.0 | 8.0 | 0.00 | 0.43 | 0.12 | 88 | 1009.7 |
| 20260505113127 | 51 | 23 | 4.0 | 9.0 | 0.00 | 0.43 | 0.12 | 89 | 1009.8 |
| 20260505111617 | 51 | 13 | 4.0 | 7.0 | 0.00 | 0.43 | 0.12 | 89 | 1009.9 |
| 20260505110126 | 51 | 75 | 2.0 | 7.0 | 0.00 | 0.43 | 0.12 | 89 | 1009.9 |
| 20260505094503 | 50 | 18 | 4.0 | 11.0 | 0.00 | 0.43 | 0.12 | 89 | 1009.9 |
| 20260505093132 | 50 | 58 | 5.0 | 10.0 | 0.00 | 0.43 | 0.12 | 89 | 1010.0 |
| 20260505091618 | 50 | 13 | 4.0 | 10.0 | 0.00 | 0.43 | 0.12 | 89 | 1010.0 |
| 20260505090124 | 50 | 4 | 3.0 | 10.0 | 0.00 | 0.43 | 0.12 | 89 | 1010.1 |
| 20260505084614 | 51 | 339 | 5.0 | 10.0 | 0.00 | 0.43 | 0.12 | 89 | 1010.0 |
| 20260505083115 | 51 | 31 | 5.0 | 10.0 | 0.00 | 0.43 | 0.12 | 89 | 1010.1 |
| 20260505081619 | 51 | 71 | 1.0 | 7.0 | 0.00 | 0.43 | 0.12 | 89 | 1010.1 |
| 20260505080120 | 51 | 357 | 4.0 | 10.0 | 0.00 | 0.43 | 0.12 | 89 | 1010.0 |
| 20260505074605 | 51 | 36 | 2.0 | 10.0 | 0.00 | 0.43 | 0.12 | 89 | 1010.0 |
| 20260505073140 | 51 | 13 | 4.0 | 9.0 | 0.00 | 0.43 | 0.12 | 89 | 1010.1 |
| 20260505071611 | 51 | 34 | 5.0 | 12.0 | 0.00 | 0.43 | 0.12 | 89 | 1010.2 |
| 20260505070115 | 51 | 18 | 6.0 | 11.0 | 0.00 | 0.43 | 0.12 | 89 | 1010.0 |
| 20260505064603 | 51 | 18 | 4.0 | 9.0 | 0.00 | 0.43 | 0.12 | 89 | 1010.1 |
| 20260505063106 | 51 | 55 | 2.0 | 8.0 | 0.00 | 0.43 | 0.12 | 89 | 1010.1 |
| 20260505061558 | 51 | 63 | 2.0 | 8.0 | 0.00 | 0.43 | 0.12 | 89 | 1010.3 |
| 20260505060104 | 51 | 1 | 7.0 | 13.0 | 0.00 | 0.43 | 0.12 | 88 | 1010.3 |
| 20260505054525 | 51 | 340 | 5.0 | 13.0 | 0.00 | 0.43 | 0.12 | 88 | 1010.3 |
| 20260505053057 | 52 | 18 | 4.0 | 10.0 | 0.00 | 0.43 | 0.12 | 88 | 1010.1 |
| 20260505051558 | 52 | 345 | 3.0 | 8.0 | 0.00 | 0.43 | 0.12 | 88 | 1010.1 |
| 20260505041505 | 53 | 346 | 5.0 | 10.0 | 0.00 | 0.43 | 0.12 | 88 | 1010.0 |
| 20260505034554 | 53 | 18 | 1.0 | 5.0 | 0.00 | 0.43 | 0.12 | 88 | 1010.3 |
| 20260505033107 | 53 | 67 | 4.0 | 10.0 | 0.00 | 0.43 | 0.12 | 88 | 1010.2 |
| 20260505031558 | 53 | 23 | 3.0 | 8.0 | 0.00 | 0.43 | 0.12 | 88 | 1010.2 |
| 20260505030019 | 53 | 347 | 4.0 | 8.0 | 0.00 | 0.43 | 0.12 | 88 | 1010.3 |
| 20260505024604 | 54 | 40 | 4.0 | 8.0 | 0.00 | 0.43 | 0.12 | 88 | 1010.2 |
| 20260505023025 | 54 | 354 | 4.0 | 11.0 | 0.00 | 0.43 | 0.12 | 88 | 1010.3 |
| 20260505021553 | 54 | 18 | 2.0 | 10.0 | 0.00 | 0.43 | 0.12 | 88 | 1010.3 |
| 20260505020054 | 54 | 66 | 3.0 | 10.0 | 0.00 | 0.43 | 0.12 | 88 | 1010.3 |
| 20260505014520 | 55 | 27 | 4.0 | 8.0 | 0.00 | 0.43 | 0.12 | 88 | 1010.3 |
| 20260505013125 | 55 | 13 | 5.0 | 11.0 | 0.00 | 0.43 | 0.12 | 88 | 1010.3 |
| 20260505011622 | 55 | 35 | 3.0 | 8.0 | 0.01 | 0.43 | 0.12 | 88 | 1010.2 |
| 20260505010004 | 55 | 27 | 5.0 | 9.0 | 0.01 | 0.43 | 0.12 | 88 | 1010.4 |
| 20260505004505 | 55 | 360 | 4.0 | 8.0 | 0.01 | 0.43 | 0.12 | 88 | 1010.6 |
| 20260505003002 | 56 | 40 | 5.0 | 9.0 | 0.01 | 0.43 | 0.12 | 88 | 1010.5 |
| 20260505001512 | 56 | 2 | 1.0 | 7.0 | 0.01 | 0.43 | 0.11 | 87 | 1010.6 |
| 20260505000139 | 56 | 8 | 4.0 | 9.0 | 0.02 | 0.43 | 0.11 | 87 | 1010.7 |
| 20260504234502 | 56 | 349 | 3.0 | 8.0 | 0.03 | 0.43 | 0.11 | 88 | 1010.8 |
| 20260504233135 | 56 | 331 | 2.0 | 7.0 | 0.06 | 0.43 | 0.11 | 87 | 1010.8 |
| 20260504231508 | 56 | 332 | 0.0 | 2.0 | 0.09 | 0.42 | 0.10 | 87 | 1010.8 |
| 20260504230135 | 56 | 310 | 1.0 | 3.0 | 0.09 | 0.41 | 0.09 | 87 | 1010.9 |
| 20260504224618 | 57 | 315 | 1.0 | 2.0 | 0.08 | 0.39 | 0.08 | 87 | 1011.0 |
| 20260504223115 | 57 | 317 | 1.0 | 2.0 | 0.05 | 0.36 | 0.05 | 87 | 1011.1 |
| 20260504221613 | 57 | 13 | 0.0 | 3.0 | 0.02 | 0.33 | 0.02 | 87 | 1011.3 |
| 20260504214615 | 57 | 302 | 0.0 | 2.0 | 0.02 | 0.31 | 0.31 | 86 | 1011.5 |
| 20260504213128 | 57 | 308 | 0.0 | 2.0 | 0.02 | 0.31 | 0.31 | 86 | 1011.6 |
| 20260504211603 | 57 | 294 | 2.0 | 3.0 | 0.02 | 0.31 | 0.31 | 86 | 1011.8 |
| 20260504210015 | 57 | 314 | 1.0 | 2.0 | 0.01 | 0.31 | 0.31 | 86 | 1011.9 |
| 20260504204552 | 57 | 233 | 0.0 | 2.0 | 0.00 | 0.30 | 0.30 | 86 | 1011.8 |
| 20260504203121 | 57 | 256 | 0.0 | 2.0 | 0.00 | 0.30 | 0.30 | 86 | 1011.8 |
| 20260504201507 | 57 | 299 | 1.0 | 3.0 | 0.00 | 0.30 | 0.30 | 85 | 1011.7 |
| 20260504200116 | 57 | 315 | 2.0 | 4.0 | 0.00 | 0.30 | 0.30 | 85 | 1011.8 |
| 20260504193022 | 57 | 112 | 0.0 | 0.0 | 0.02 | 0.31 | 0.30 | 83 | 1011.6 |
| 20260504191612 | 57 | 112 | 0.0 | 2.0 | 0.04 | 0.31 | 0.30 | 83 | 1011.6 |
| 20260504190011 | 57 | 112 | 0.0 | 2.0 | 0.09 | 0.31 | 0.30 | 83 | 1011.5 |
| 20260504184645 | 58 | 112 | 0.0 | 2.0 | 0.13 | 0.30 | 0.30 | 83 | 1011.3 |
| 20260504183120 | 58 | 98 | 1.0 | 2.0 | 0.16 | 0.28 | 0.28 | 83 | 1011.4 |
| 20260504181615 | 58 | 113 | 0.0 | 2.0 | 0.21 | 0.27 | 0.26 | 82 | 1011.5 |
| 20260504180116 | 58 | 137 | 0.0 | 5.0 | 0.21 | 0.22 | 0.21 | 81 | 1011.5 |
| 20260504174519 | 59 | 106 | 1.0 | 7.0 | 0.16 | 0.24 | 0.16 | 81 | 1011.6 |
| 20260504173009 | 59 | 60 | 1.0 | 7.0 | 0.12 | 0.20 | 0.12 | 80 | 1011.5 |
| 20260504171537 | 61 | 2 | 5.0 | 11.0 | 0.05 | 0.13 | 0.05 | 76 | 1011.3 |
| 20260504170127 | 62 | 358 | 3.0 | 9.0 | 0.00 | 0.08 | 0.00 | 73 | 1011.2 |